Вернуться в каталог

LEMUR 2 CHRIS

LostНаукаLEO
NORAD 40933·PAYLOAD·🇺🇸 United States

Запущен Sep 28, 2015 с Satish Dhawan Space Centre

Loading…

Ближайшие Пролёты (ближайшие 24 часа)

TLE

УстаревшееSource: Space-Track

Эпоха: Feb 19, 2024, 08:18 UTC

1 40933U 15052D   24050.34614090  .00008209  00000-0  86789-3 0  9990
2 40933   6.0022  57.3568 0012335 326.7853  33.1501 14.84525301454530

Отслеживайте LEMUR 2 CHRIS в реальном времени с AllMySat

Download on the App Store